Regional Weather Roundup
Issued by NWS Portland, ME

Home | Current Version | Previous Version | Text Only | Print | Product List | Glossary On
Versions: 1 2 3 4 5 6 7 8 9 10 11 12 13 14 15 16 17 18 19 20 21 22 23 24 25 26 27 28 29 30 31 32 33 34 35 36 37 38 39 40 41 42 43 44 45 46 47 48 49 50
000
ASUS41 KGYX 201210
RWRGYX
WEATHER ROUNDUP FOR MAINE AND NEW HAMPSHIRE
NATIONAL WEATHER SERVICE GRAY ME
800 AM EDT SUN AUG 20 2017

MEZ002-005-006-010-012-015-018-020-021-024-026-027-029-201300-
MAINE

CITY           SKY/WX    TMP DP  RH WIND       PRES   REMARKS
PORTLAND       SUNNY     70  63  78 SW3       29.88R
6HR MIN TEMP:  63; 6HR MAX TEMP:  70; 6HR PCP: TRACE;

SANFORD        SUNNY     72  64  76 W3        29.90R
BAR HARBOR     LGT RAIN  64  63  96 S5        29.86S VSB 1/2
WISCASSET      MOSUNNY   68  65  90 CALM      29.88R
6HR MIN TEMP:  64; 6HR MAX TEMP:  68; 6HR PCP: TRACE;

ROCKLAND       CLOUDY    66  66 100 CALM      29.86R
FRYEBURG       SUNNY     71  62  73 W6        29.90R
6HR MIN TEMP:  64; 6HR MAX TEMP:  71;

LEWISTONAUBURN SUNNY     67  65  93 CALM      29.88R
AUGUSTA        PTSUNNY   66  65  96 CALM      29.88R
6HR MIN TEMP:  64; 6HR MAX TEMP:  65;

WATERVILLE     FOG       65  65 100 SW6       29.84R VSB 1/2
BANGOR         CLOUDY    68  65  90 SW5       29.85R
6HR MIN TEMP:  65; 6HR MAX TEMP:  68; 6HR PCP: TRACE;

GREENVILLE       N/A     63  60  90 CALM      29.86R
6HR MIN TEMP:  60; 6HR MAX TEMP:  64;

MILLINOCKET    LGT RAIN  65  65 100 CALM      29.84R
6HR MIN TEMP:  63; 6HR MAX TEMP:  65; 6HR PCP: TRACE;

HOULTON        CLOUDY    66  66 100 S7        29.80R
6HR MIN TEMP:  64; 6HR MAX TEMP:  66; 6HR PCP:  0.01;

PRESQUE ISLE   CLOUDY    66  64  93 S6        29.80R
6HR MIN TEMP:  63; 6HR MAX TEMP:  66; 6HR PCP:  0.04;

FRENCHVILLE    CLOUDY    62  62 100 S6        29.78R FOG
6HR MIN TEMP:  60; 6HR MAX TEMP:  62; 6HR PCP: TRACE;

CARIBOU        CLOUDY    66  64  93 SW5       29.78R
6HR MIN TEMP:  63; 6HR MAX TEMP:  66; 6HR PCP:  0.03;

$$

NHZ002-005-008-009-011-012-014-201300-
NEW HAMPSHIRE

CITY           SKY/WX    TMP DP  RH WIND       PRES   REMARKS
PORTSMOUTH     MOSUNNY   71  65  81 W7        29.89R
ROCHESTER      SUNNY     71  61  70 VRB7      29.90R
6HR MIN TEMP:  62; 6HR MAX TEMP:  71; 6HR PCP: TRACE;

NASHUA         SUNNY     71  63  75 W6        29.93R
MANCHESTER     SUNNY     72  60  66 VRB5      29.91R
6HR MIN TEMP:  67; 6HR MAX TEMP:  72;

CONCORD        SUNNY     70  63  78 NW3       29.93R
6HR MIN TEMP:  62; 6HR MAX TEMP:  70; 6HR PCP: TRACE;

LACONIA        SUNNY     70  62  76 W9        29.93R
PLYMOUTH       PTSUNNY   63  62  96 W3        29.93R
BERLIN         CLOUDY    63  58  83 CALM      29.93R
6HR MIN TEMP:  58; 6HR MAX TEMP:  63;

WHITEFIELD     PTSUNNY   66  59  78 S3        29.95R
6HR MIN TEMP:  60; 6HR MAX TEMP:  66; 6HR PCP: TRACE;

JAFFREY        SUNNY     68  61  78 W8        29.98R
6HR MIN TEMP:  63; 6HR MAX TEMP:  68; 6HR PCP: TRACE;

KEENE            N/A    N/A N/A N/A MISG        N/A
LEBANON        CLOUDY    64  63  96 W3        29.95R
6HR MIN TEMP:  60; 6HR MAX TEMP:  65; 6HR PCP:  0.01;

MT WASHINGTON  LGT RAIN  46  46 100 W51G56      N/A  VSB 0
6HR MIN TEMP:  46; 6HR MAX TEMP:  49; 6HR PCP:  0.05;

$$

VTZ005-007-008-201300-
VERMONT

CITY           SKY/WX    TMP DP  RH WIND       PRES   REMARKS
ST JOHNSBURY     N/A     65  63  93 MISG      29.94R
MONTPELIER     PTSUNNY   64  59  83 W7        30.00R
BURLINGTON     PTSUNNY   69  58  67 W9G20     29.97R
$$

MAZ007-012-024-CTZ003-RIZ002-NYZ038-NYZ072-201300-
SOUTHERN NEW ENGLAND AND NY

CITY           SKY/WX    TMP DP  RH WIND       PRES   REMARKS
BOSTON         MOSUNNY   74  62  66 W15G21    29.92R
WORCESTER      SUNNY     67  58  72 W14       29.97R
NANTUCKET      SUNNY     72  71  97 W12       29.93R
PROVIDENCE     SUNNY     73  63  70 W9        29.95R
HARTFORD       MOSUNNY   71  60  68 NW10      29.98R
ALBANY         PTSUNNY   68  61  78 W7        30.01R
NEW YORK CITY  MOSUNNY   72  63  73 NW16      30.01R
$$

ANZ081-ANZ082-ANZ150-NHZ014-MEZ023>029-201300-
COASTAL MARINE OBSERVATIONS

STATION/POSITION TIME  TEMP    WIND        PRES    WAVE
                       AIR SEA DIR/SP/G            HT/PER
                 (UTC) (F)     (DEG/KT/KT) (MB)    (FT/S)
MOUNT DESERT ROC 1200   59                 1011.3R
MATINICUS ROCK   1100   60     310/  7/  7 1010.5R
ISLE OF SHOALS   1100   69     270/  9/  9 1011.4R
JEFFREYS LEDGE   1106      66                N/A     3/ 7
CASHES LEDGE BUO 1150   69 68              1011.7R   4/ 7
GEORGES BANK BUO 1050   65 63              1012.6    5/ 7
$$

.............KEY..............
   WCI - WIND CHILL
   TC  - TEMPERATURE IN CELSIUS
   VSB - VISIBILITY IN MILES
   HX  - HEAT INDEX
   FAIR- INDICATES FEW OR NO CLOUDS BELOW 12,000 FT, WITH NO
         SIGNIFICANT WEATHER AND/OR OBSTRUCTIONS TO VISIBILITY.






USA.gov is the U.S. government's official web portal to all federal, state and local government web resources and services.